カタログに戻る

SKYSAT C10

運用中科学SSO
NORAD 42988·PAYLOAD·🇺🇸 United States

打ち上げ Oct 31, 2017 から Vandenberg Space Force Base

Loading…

次のパス (今後24時間)

TLE

最新Source: Space-Track

元期: Sep 14, 2026, 15:28 UTC

1 42988U 17068B   26257.64457287  .00008000  00000-0  23016-3 0  9991
2 42988  97.4632  35.5248 0001359  86.1594 273.9805 15.36058870496086

AllMySatでSKYSAT C10をリアルタイム追跡

Download on the App Store